Regional Weather Roundup
Issued by NWS

Home | Current Version | Previous Version | Graphics & Text | Print | Product List | Glossary On
Versions: 1 2 3 4 5 6 7 8 9 10 11 12 13 14 15 16 17 18 19 20 21 22 23 24 25 26 27 28 29 30 31 32 33 34 35 36 37 38 39 40 41 42 43 44 45 46 47 48 49 50
520
ASUS45 KTFX 090110
RWRMT
MONTANA REGIONAL WEATHER ROUNDUP
NATIONAL WEATHER SERVICE GREAT FALLS MT
600 PM MST MON FEB 08 2016

NOTE: "FAIR" INDICATES FEW OR NO CLOUDS BELOW 12000 FEET WITH NO
SIGNIFICANT WEATHER AND/OR OBSTRUCTIONS TO VISIBILITY.

MTZ001>007-043-090200-
WEST OF THE DIVIDE

CITY           SKY/WX    TMP DP  RH WIND       PRES   REMARKS
KALISPELL      CLOUDY    35  28  75 SW3       30.53S
MISSOULA       MOCLDY    39  26  59 CALM      30.54S
BUTTE          CLOUDY    42  31  64 NW5       30.50S
MULLAN PASS    MOCLDY    37  29  72 SW7       30.52F WCI  32
ANACONDA         N/A     41  30  65 N3        30.51R
DEER LODGE       N/A     39  30  70 CALM      30.52S
HAMILTON         N/A     43  30  61 CALM      30.52S
LIBBY            N/A     39  28  65 CALM      30.53F
PLAINS           N/A     45  31  58 CALM      30.50F
$$

MTZ008-052>055-090200-
SOUTHWEST MONTANA

CITY           SKY/WX    TMP DP  RH WIND       PRES   REMARKS
BOZEMAN        CLOUDY    37  29  72 S6        30.47F
DILLON         CLOUDY    43  30  60 CALM      30.49S
ENNIS          CLEAR     37  28  70 S14G20    30.55F WCI  29
TWIN BRIDGES     N/A     40  28  62 E2        30.42F
$$

MTZ009-010-012-014-046-048-049-054-090200-
EAST SLOPES AND CENTRAL MONTANA

CITY           SKY/WX    TMP DP  RH WIND       PRES   REMARKS
CUT BANK       MOCLDY    45  31  58 W24G31    30.30S
GREAT FALLS    CLOUDY    47  28  47 W16       30.34R
MALMSTROM AFB  CLOUDY    53  29  39 W16G23    30.34R
HELENA         CLOUDY    49  34  56 W13       30.42S
CHOTEAU          N/A     50  30  46 SW14      30.35R
CONRAD           N/A     47  30  51 CALM      30.32R
$$

MTZ011-013-016-021-045-047-050-051-090200-
NORTH CENTRAL MONTANA

CITY           SKY/WX    TMP DP  RH WIND       PRES   REMARKS
HAVRE          CLOUDY    44  28  53 CALM      30.28S
LEWISTOWN      CLOUDY    40  30  67 W12       30.32S
N BAR RANCH      N/A     46  28  49 W7        30.32S
CHINOOK          N/A     45  28  53 SW3       30.27F
$$

MTZ017>020-022>027-061-062-090200-
NORTHEAST MONTANA

CITY           SKY/WX    TMP DP  RH WIND       PRES   REMARKS
GLASGOW        CLEAR     31  24  75 E8        30.27S WCI  23
JORDAN           N/A     37  27  67 CALM      30.27R
SIDNEY         CLOUDY    34  16  47 CALM      30.29S
WOLF POINT     PTCLDY    32  24  72 CALM      30.29R
PLENTYWOOD       N/A     34  21  60 CALM      30.27S
POPLAR           N/A     34  19  55 CALM      30.29S
$$

MTZ028>42-056>058-090200-
SOUTHCENTRAL AND SOUTHEAST MONTANA

CITY           SKY/WX    TMP DP  RH WIND       PRES   REMARKS
BAKER          CLOUDY    36  12  37 CALM      30.25F
BILLINGS       CLOUDY    49  27  42 W10       30.33S
LIVINGSTON     CLOUDY    46  27  47 W14       30.41F
MILES CITY     CLOUDY    42  26  53 N3        30.27S
FORSYTH          N/A     48  27  43 CALM      30.27F
LAUREL           N/A     48  27  44 W7        30.30R
ROUNDUP          N/A     50  26  39 SW5       30.20S
$$

REGIONAL REPORTS...DAKOTAS

CITY           SKY/WX    TMP DP  RH WIND       PRES   REMARKS
WILLISTON      CLOUDY    33  21  61 N5        30.29S
MINOT          CLEAR     23  13  65 NW10      30.27R WCI  12
DICKINSON      CLOUDY    30  15  53 NW10      30.24S WCI  21
BEACH          CLOUDY    32  16  51 W3        30.29S
CROSBY         CLOUDY    25  23  93 W5        30.31S
TIOGA          MOCLDY    25  23  93 NW7       30.32S WCI  17
WATFORD CITY   CLOUDY    32  18  55 NW5       30.29S
BISMARCK       MOCLDY    32  17  54 N13G21    30.25F WCI  22
GRAND FORKS    CLOUDY    10   2  69 N20       30.26R WCI  -9
FARGO          CLOUDY    11   4  73 N28       30.22F BLWGSNOWWCI -10
BUFFALO SD       N/A     37  11  34 N13       30.18F WCI  29
RAPID CITY     CLOUDY    38  16  40 N9        30.25R WCI  31
$$

REGIONAL REPORTS...WYOMING/IDAHO/WASHINGTON

CITY           SKY/WX    TMP DP  RH WIND       PRES   REMARKS
GILLETTE       CLOUDY    33  27  78 W8        30.29S WCI  26
SHERIDAN       PTCLDY    45  27  49 NW7       30.28F
BUFFALO WY     CLOUDY    43  28  55 NW5       30.32S
CODY           CLOUDY    39  19  45 NE10      30.37R
YELLOWSTONE LA   N/A     26  20  77 CALM      30.56R
IDAHO FALLS    CLOUDY    23  21  92 NW7       30.65F FOG     WCI  15
SALMON         CLOUDY    25  18  74 SE3       30.64R
BOISE          CLEAR     42  33  70 S7        30.63F
SPOKANE        MOCLDY    45  34  65 NE5       30.52F
$$

REGIONAL REPORTS...ALBERTA

CITY           SKY/WX    TMP DP  RH WIND       PRES   REMARKS
EDMONTON       CLEAR     36  28  75 SW5       30.23S
CALGARY        MOCLDY    52  23  32 W13       30.23S
LETHBRIDGE     MOCLDY    48  32  53 W21G26    30.26F
MEDICINE HAT   MOCLDY    41  27  56 N6        30.25S
WATERTON GATE    N/A     46  28  49 SW28G40     N/A
CARDSTON         N/A     50  28  43 W18G25      N/A
MILK RIVER       N/A     39  28  65 W8          N/A
ONEFOUR          N/A     37  30  75 NW9         N/A  WCI  31
$$

REGIONAL REPORTS...SASKATCHEWAN

CITY           SKY/WX    TMP DP  RH WIND       PRES   REMARKS
SWIFT CURRENT  PTCLDY    34  25  69 W8        30.21S WCI  27
REGINA         CLOUDY    27  21  80 SE6       30.25F WCI  20
SASKATOON      PTCLDY    27  21  80 S5        30.24R
VAL MARIE        N/A     34  25  69 N3          N/A
ROCKGLEN         N/A     27  21  80 SW6         N/A  WCI  20
$$




USA.gov is the U.S. government's official web portal to all federal, state and local government web resources and services.